Miscellaneous Local Product
Issued by NWS Hastings, NE

Home | Current Version | Previous Version | Text Only | Print | Product List | Glossary On
Versions: 1 2 3 4 5 6 7 8 9 10 11 12 13 14 15 16 17 18 19 20 21 22 23 24 25 26 27 28 29 30 31 32 33 34 35 36 37 38 39 40 41 42 43 44 45 46 47 48 49 50
000
AXUS43 KGID 012202
MISGRI

GID CWA HOURLY WEATHER ROUNDUP
NATIONAL WEATHER SERVICE HASTINGS NE
500 PM CDT MON SEP 01 2014

NOTE: "FAIR" INDICATES FEW OR NO CLOUDS BELOW 12,000 FEET WITH NO
SIGNIFICANT WEATHER AND/OR OBSTRUCTIONS TO VISIBILITY.

...SOUTH CENTRAL NEBRASKA...

CITY           SKY/WX    TMP DP  RH WIND       PRES   REMARKS
GRAND ISLAND   CLOUDY    74  60  61 W6        29.92S
HASTINGS       CLOUDY    71  60  68 CALM      29.91F
KEARNEY        CLOUDY    68  59  73 SW3       29.92F
ORD            MOSUNNY   76  54  46 S7        29.87F
YORK           CLOUDY    72 N/A N/A W3        29.91S
AURORA         CLOUDY    71  62  72 S7        29.89F
LEXINGTON      PTSUNNY   71  58  64 CALM      29.92F
HOLDREGE       PTSUNNY   70  59  67 CALM      29.92F
HEBRON         MOSUNNY   77  56  47 NW6       29.91S

...NEBRASKA PANHANDLE...

CITY           SKY/WX    TMP DP  RH WIND       PRES   REMARKS
CHADRON        LGT RAIN  57  51  80 NW14G31   29.95R
ALLIANCE       MOSUNNY   78  37  22 W20       29.89F
SCOTTSBLUFF    SUNNY     82  40  22 NW18G29   29.90S
SIDNEY         PTSUNNY   79  46  31 SW12      29.95F

...WESTERN AND NORTH CENTRAL NEBRASKA...

CITY           SKY/WX    TMP DP  RH WIND       PRES   REMARKS
VALENTINE      CLOUDY    72  49  44 NW18G25   29.89R
AINSWORTH      SUNNY     76  46  35 CALM      29.87F
ONEILL         SUNNY     78  51  39 W3        29.87F
BROKEN BOW     MOSUNNY   79  51  37 W7        29.89F
IMPERIAL       SUNNY     78  49  35 SW9       29.94F
NORTH PLATTE   SUNNY     75  53  46 S8        29.91F
MCCOOK         MOSUNNY   78  52  40 VRB5      29.93F

...EASTERN NEBRASKA...

CITY           SKY/WX    TMP DP  RH WIND       PRES   REMARKS
NORFOLK        MOSUNNY   77  55  46 S6        29.87S
SO SIOUX CITY  MOSUNNY   79  60  52 VRB5      29.84S
TEKAMAH        MOSUNNY   78  62  57 W3        29.86S
COLUMBUS       CLOUDY    75  57  53 CALM      29.89S
ALBION         MOSUNNY   78  56  46 SW9       29.88F
OMAHA EPPLEY   PTSUNNY   77  60  55 N7        29.86F
OFFUTT AFB     PTSUNNY   76  64  65 E3        29.86S
MILLARD        PTSUNNY   78  60  54 NW5       29.86S
LINCOLN        CLOUDY    77  61  57 SW8       29.89S
NEBRASKA CITY  MOSUNNY   76  60  55 CALM      29.87F
BEATRICE       MOSUNNY   76  62  61 NW3       29.89S
FALLS CITY     MOSUNNY   81  62  52 N5        29.87S

...NORTHERN KANSAS...

CITY           SKY/WX    TMP DP  RH WIND       PRES   REMARKS
GOODLAND       SUNNY     80  46  30 VRB6      29.96F
HILL CITY      SUNNY     81  54  39 E8        29.92F
NORTON         CLEAR     79  45  29 SE5       29.92S
PHILLIPSBURG   MOSUNNY   79  52  38 CALM      29.91S
SMITH CENTER   SUNNY     75  57  53 NE5       29.92S
HAYS           MOSUNNY   81  61  50 NE5       29.90S
RUSSELL        MOSUNNY   80  63  55 E9        29.89S
CONCORDIA      SUNNY     80  60  50 CALM      29.89S
SALINA         CLOUDY    78  66  66 NE5       29.89S
TOPEKA         CLOUDY    79  69  71 NW3       29.88S



USA.gov is the U.S. government's official web portal to all federal, state and local government web resources and services.